User: anonymous   Login
Location: Lake Runnemede Observatory
(43.4843°N, 72.3851°W)
Time: 11:01:45
(UTC-04:00)
Language:

SPOT 5 - Orbit

View from above orbital plane
View from above orbital plane
View from above satellite
View from above satellite

Ground track
Ground track

The orbit data is extracted from the following two-line orbital elements,

1 27421U 02021A   16121.11363908  .00000033  00000-0  18876-4 0  9993
2 27421  98.4605 176.6009 0135954 151.5929 209.2775 14.51790209725732
Epoch (UTC): 30 April 2016 02:43:38
Eccentricity: 0.0135954
inclination: 98.4605°
perigee height: 623 km
apogee height: 816 km
right ascension of ascending node: 176.6009°
argument of perigee: 151.5929°
revolutions per day: 14.51790209
mean anomaly at epoch: 209.2775°
orbit number at epoch: 72573

The dashed part of the orbit path shows where the satellite is in the earth's shadow,  

DLR